Terminal Aerodrome Forecast
Issued by NWS Shreveport, LA

Home | Current Version | Previous Version | Text Only | Print | Product List | Glossary On
Versions: 1 2 3 4 5 6 7 8 9 10 11 12 13 14
000
FTUS44 KSHV 211400 AAB
TAFTXK
TAF AMD
KTXK 211425Z 2114/2212 19004KT P6SM VCSH BKN090
      TEMPO 2114/2116 5SM -SHRA
     FM212000 20009KT P6SM VCTS SCT050CB SCT120 BKN250
     FM220100 26007KT 5SM -TSRA BKN050CB OVC100
     FM220800 32004KT 4SM BR OVC015=

USA.gov is the U.S. government's official web portal to all federal, state and local government web resources and services.